Find Starlink 32550

NORAD ID: 62131 Int'l Des: 2024-222 Owner: SPXS Country: US Constellation: starlink operational
LEOCIRCULAR

Current View

Loading 3D Globe...

About Starlink 32550

Starlink 32550 (NORAD 62131) is a starlink constellation satellite (v2 mini) launched Nov 27, 2024 by SPXS of US. It operates in LEO, CIRCULAR orbit with a mass of 730.00 kg.

Upcoming Passes

Passes for default location (London). Set your location on the main map for personalized predictions.

Altitude History

Loading altitude history...

Two-Line Element Set

1 62131U 24222T 26263.00193626 .00006690 00000-0 25236-3 0 9993
2 62131 43.0016 119.0537 0001605 268.2721 91.7947 15.27589605102519
Epoch: Sep 20, 2026 • Age: 25 hours

Current Status

Altitude 489.7 km
Apogee / Perigee N/A
Velocity 7.62 km/s
Sub-Earth Point -28.82°S, 62.94°E
Launch Date Nov 27, 2024
Age 1.8 years
Type internet

Technical Details

Classification Payload
Mass 730.00 kg
Dry Mass 700.00 kg
Length 0.30 m
Span 29.00 m
Shape ? Box + pan
Manufacturer SPXS
Bus Type Starlink V2M
Phase Status In Orbit
Owner/State SPXS/US

Most Searched